Simultaneous Nadir Overpasses (SNOs) Predictions

Prediction of SNOs between GOES-16 and METOP-C Satellite Orbit:

Table of predicted SNOs for the next 14.0 days since TLE Epoch: 8/26/2023
Index Date Time (GOES-16) GOES-16 Lat,Lon METOP-C Lat,Lon Distance(km) Time Diff (sec)
1 08/26/2023 14:44:46 -0.03, -75.22 0.80, -79.03 434.61 80
2 08/27/2023 14:26:45 -0.03, -75.22 -0.30, -74.04 135.04 80
3 08/29/2023 02:43:03 0.03, -75.21 -0.72, -78.63 388.79 80
4 08/30/2023 02:25:03 0.03, -75.22 0.39, -73.63 181.15 80
5 08/31/2023 14:41:13 -0.04, -75.24 0.64, -78.19 336.33 80
6 09/01/2023 14:23:13 -0.04, -75.25 -0.47, -73.19 234.35 80
7 09/03/2023 02:42:11 0.04, -75.26 -0.55, -77.78 287.76 80
8 09/04/2023 02:18:51 0.04, -75.28 0.56, -72.79 283.27 80
9 09/05/2023 14:37:42 -0.04, -75.31 0.39, -77.36 232.86 80
10 09/06/2023 14:19:41 -0.03, -75.32 -0.67, -72.35 338.48 80
11 09/08/2023 02:38:39 0.03, -75.34 -0.35, -76.94 182.81 80
